Location: Caltech
(34.1382°N, 118.1253°W)
Time: 21:23:06
(UTC-07:00)

TMSAT-1 - Visible Passes

Search period start: 01 October 2014 00:00
Search period end: 11 October 2014 00:00
Orbit: 809 x 813 km, 98.5° (Epoch: 01 October)

Date Brightness Start Highest point End Pass type
(mag) Time Alt. Az. Time Alt. Az. Time Alt. Az.
01 Oct 10.6 04:23:45 10° N 04:26:02 25° N 04:26:02 25° N visible
02 Oct 10.9 04:00:15 10° NNE 04:02:15 24° N 04:02:15 24° N visible
03 Oct 11.4 03:36:59 10° NNE 03:38:28 19° NNE 03:38:28 19° NNE visible
03 Oct 11.0 05:18:29 10° NNW 05:19:37 13° NW 05:19:37 13° NW visible
04 Oct 11.8 03:14:01 10° NE 03:14:41 13° NE 03:14:41 13° NE visible
04 Oct 10.9 04:54:08 10° NNW 04:55:50 18° NNW 04:55:50 18° NNW visible
05 Oct 10.9 04:30:16 10° N 04:32:03 21° N 04:32:03 21° N visible
06 Oct 11.1 04:06:41 10° N 04:08:16 20° N 04:08:16 20° N visible
07 Oct 11.5 03:43:21 10° NNE 03:44:28 17° NNE 03:44:28 17° NNE visible
07 Oct 11.2 05:25:24 10° NW 05:25:38 11° NW 05:25:38 11° NW visible
08 Oct 11.9 03:20:17 10° NNE 03:20:41 12° NNE 03:20:41 12° NNE visible
08 Oct 11.1 05:00:47 10° NNW 05:01:51 14° NNW 05:01:51 14° NNW visible
09 Oct 11.1 04:36:48 10° N 04:38:03 17° NNW 04:38:03 17° NNW visible
10 Oct 11.3 04:13:08 10° N 04:14:15 17° N 04:14:15 17° N visible
